Volver al catálogo

DELTA 1 DEB

ActivoPO
NORAD 21270·DEBRIS·🇺🇸 United States

Lanzado Jun 12, 1975 desde Vandenberg Space Force Base

Loading…

Próximos Pases (próximas 24 horas)

TLE

ActualizadoSource: Space-Track

Época: Sep 14, 2026, 12:14 UTC

1 21270U 75052F   26257.50976897  .00000405  00000-0  17000-2 0  9993
2 21270  99.4350 273.7550 0441415  24.3936 126.5690 12.61416719620431

Sigue DELTA 1 DEB en tiempo real con AllMySat

Download on the App Store